Location: Nashville
(36.1660°N, 86.7840°W)
Time: 12:56:58
(UTC-05:00)

JY1SAT - Visible Passes

Search period start: 16 May 2022 00:00
Search period end: 26 May 2022 00:00
Orbit: 566 x 587 km, 97.6° (Epoch: 16 May)

Date Brightness Start Highest point End Pass type
(mag) Time Alt. Az. Time Alt. Az. Time Alt. Az.
16 May ? 22:01:31 42° NE 22:01:31 42° NE 22:04:57 10° N visible
16 May ? 23:37:46 10° WNW 23:37:46 10° WNW 23:38:00 10° WNW visible
17 May ? 22:05:21 46° NE 22:05:21 46° NE 22:08:51 10° N visible
18 May ? 22:09:10 52° NE 22:09:10 52° NE 22:12:43 10° N visible
19 May ? 22:12:58 58° NE 22:12:58 58° NE 22:16:36 10° N visible
20 May ? 22:16:47 64° NE 22:16:47 64° NE 22:20:26 10° N visible
21 May ? 22:20:36 69° NNE 22:20:36 69° NNE 22:24:17 10° N visible
22 May ? 22:24:23 73° N 22:24:23 73° N 22:28:05 10° N visible
23 May ? 22:28:11 72° NW 22:28:11 72° NW 22:31:54 10° NNW visible
24 May ? 22:31:58 68° NW 22:31:58 68° NW 22:35:41 10° NNW visible
25 May ? 22:35:45 62° WNW 22:35:45 62° WNW 22:39:28 10° NNW visible
